KAZSAT-3

Last updated on Mon Sep 07 2026 00:02:59 GMT+0000 (Coordinated Universal Time)

1 39728U 14023B 26249.53210808 .00000045 00000+0 00000+0 0 9996 2 39728 0.0089 184.5283 0000344 66.6646 344.4931 1.00272162 43279
UTC large
Height (km)
Speed (km/s)
/
Latitude / Longitude
Inclination (degrees)
Orbital Period (minutes)
Azimuth
Elevation
Range (km)
Doppler Factor

Next 0 passes for location: London (51.5072 / 0.1276)

No passes found over London.
KAZSAT-3